Location: Newark
(48.3453°N, 0.5589°E)
Time: 16:24:45
(UTC+00:00)

A-11 Canister half - Visible Passes

Search period start: 07 December 2019 00:00
Search period end: 17 December 2019 00:00
Orbit: 1526 x 1683 km, 47.3° (Epoch: 06 December)

Date Brightness Start Highest point End Pass type
(mag) Time Alt. Az. Time Alt. Az. Time Alt. Az.
07 Dec 11.6 04:10:59 10° SE 04:13:42 11° ESE 04:16:25 10° ESE visible
07 Dec 10.5 06:07:27 10° SSW 06:16:34 40° SE 06:25:39 10° ENE visible
08 Dec 11.6 03:50:51 10° SE 03:52:11 10° ESE 03:53:30 10° ESE visible
08 Dec 10.5 05:45:57 10° SSW 05:54:58 38° SE 06:03:58 10° ENE visible
09 Dec 10.5 05:24:28 10° SSW 05:33:22 37° SE 05:42:16 10° ENE visible
10 Dec 10.5 05:03:00 10° SSW 05:11:46 35° SE 05:20:34 10° ENE visible
11 Dec 10.5 04:41:31 10° SSW 04:50:11 34° SE 04:58:51 10° ENE visible
11 Dec 9.5 06:44:11 10° WSW 06:54:15 70° SSE 07:04:16 10° ENE visible
12 Dec 10.4 04:20:05 10° SSW 04:28:35 32° SE 04:37:08 10° ENE visible
12 Dec 9.5 06:22:34 10° WSW 06:32:36 68° SSE 06:42:37 10° ENE visible
13 Dec 10.4 03:58:59 11° S 04:07:01 31° SE 04:15:24 10° ENE visible
13 Dec 9.5 06:00:57 10° SW 06:10:57 67° SSE 06:20:58 10° ENE visible
14 Dec 10.5 03:39:47 18° S 03:45:25 30° SE 03:53:40 10° E visible
14 Dec 9.5 05:39:20 10° SW 05:49:18 65° SSE 05:59:17 10° ENE visible
15 Dec 10.5 03:20:19 23° SSE 03:23:51 28° SE 03:31:56 10° E visible
15 Dec 9.5 05:18:41 14° SW 05:27:39 64° SSE 05:37:37 10° ENE visible
16 Dec 10.4 03:00:39 26° SE 03:02:17 27° SE 03:10:10 10° E visible
16 Dec 9.5 04:59:00 22° SW 05:06:01 62° SSE 05:15:58 10° ENE visible
16 Dec 9.3 07:00:46 10° W 07:10:58 85° S 07:21:07 10° E visible
